Tracking 20942 objects as of 12-Jul-2020
HD Live streaming from Space Station
objects crossing your sky now

COSMOS 1720

Track COSMOS 1720 now!
10-day predictions
COSMOS 1720 is classified as:


NORAD ID: 16453
Int'l Code: 1986-002E
Perigee: 1,446.8 km
Apogee: 1,491.5 km
Inclination: 74.0 °
Period: 115.1 minutes
Semi major axis: 7840 km
RCS: 0.701 m2 (medium)
Launch date: January 9, 1986
Source: Commonwealth of Independent States (former USSR) (CIS)
Launch site: PLESETSK MISSILE AND SPACE COMPLEX (PKMTR)
aabbcc
Your satellite tracking list
Your tracking list is empty




NASA's NSSDC Master Catalog

Two Line Element Set (TLE):
1 16453U 86002E   20193.71865669 -.00000014 +00000-0 +12388-4 0  9990
2 16453 073.9891 273.1458 0028539 299.2442 176.7084 12.50594277575278
Source of the keplerian elements: AFSPC